GW3465 Weather Reports


time (UTC)temp
C
wind
direction
speed
KPH
gust
KPH
rain 1hr
cm
rain 24hr
cm
rain mn
cm
humidity
%
barometer
mb
20260505054309 20 243 20.9 24.1 0.00 0.00 0.00 69 1004.3
20260505053807 20 235 11.3 16.1 0.00 0.00 0.00 69 1004.5
20260505053303 20 209 11.3 16.1 0.00 0.00 0.00 69 1004.6
20260505052800 20 229 9.7 16.1 0.00 0.00 0.00 69 1004.5
20260505052257 20 220 8.0 14.5 0.00 0.00 0.00 69 1004.4
20260505051754 20 252 3.2 11.3 0.00 0.00 0.00 69 1004.4
20260505051252 20 279 8.0 12.9 0.00 0.00 0.00 68 1004.4
20260505050750 20 220 4.8 11.3 0.00 0.00 0.00 68 1004.4
20260505050248 20 217 6.4 12.9 0.00 0.00 0.00 68 1004.7
20260505041718 21 266 6.4 14.5 0.00 0.00 0.00 66 1005.5
20260505041215 21 267 6.4 16.1 0.00 0.00 0.00 65 1005.5
20260505040712 21 241 4.8 11.3 0.00 0.00 0.00 65 1005.5
20260505040209 21 248 4.8 11.3 0.00 0.00 0.00 65 1005.6
20260505035706 21 205 1.6 6.4 0.00 0.00 0.00 65 1005.8
20260505035202 21 263 4.8 11.3 0.00 0.00 0.00 64 1005.8
20260505034659 22 251 4.8 11.3 0.00 0.00 0.00 64 1006.0
20260505034156 22 271 8.0 9.7 0.00 0.00 0.00 64 1005.9
20260505033652 22 250 4.8 11.3 0.00 0.00 0.00 64 1005.7
20260505033151 22 190 0.0 11.3 0.00 0.00 0.00 64 1005.7
20260505032648 22 264 4.8 12.9 0.00 0.00 0.00 63 1005.6
20260505032139 22 257 8.0 14.5 0.00 0.00 0.00 63 1005.7
20260505031636 22 255 4.8 12.9 0.00 0.00 0.00 63 1005.7
20260505031132 22 211 4.8 11.3 0.00 0.00 0.00 63 1005.4
20260505030629 22 247 4.8 14.5 0.00 0.00 0.00 63 1005.7
20260505030125 22 223 3.2 14.5 0.00 0.00 0.00 63 1005.6
20260505025621 22 200 6.4 11.3 0.00 0.00 0.00 62 1005.5
20260505025120 22 316 6.4 9.7 0.00 0.00 0.00 62 1005.5
20260505024617 22 237 3.2 16.1 0.00 0.00 0.00 62 1005.2
20260505024114 22 272 6.4 16.1 0.00 0.00 0.00 61 1005.4
20260505023611 22 296 6.4 9.7 0.00 0.00 0.00 61 1005.0
20260505023109 22 165 6.4 12.9 0.00 0.00 0.00 61 1005.0
20260505022606 22 226 4.8 9.7 0.00 0.00 0.00 61 1005.1
20260505022103 22 280 1.6 16.1 0.00 0.00 0.00 61 1004.8
20260505021600 22 189 4.8 14.5 0.00 0.00 0.00 61 1004.8
20260505021057 22 202 8.0 11.3 0.00 0.00 0.00 61 1004.7
20260505020556 23 230 3.2 12.9 0.00 0.00 0.00 61 1004.5
20260505020054 23 251 16.1 20.9 0.00 0.00 0.00 60 1004.6
20260505015551 23 247 9.7 16.1 0.00 0.00 0.00 60 1004.8
20260505015047 23 212 4.8 14.5 0.00 0.00 0.00 60 1004.6
20260505014544 23 277 6.4 11.3 0.00 0.00 0.00 61 1004.3
20260505014041 23 271 6.4 22.5 0.00 0.00 0.00 60 1004.5
20260505013538 23 234 6.4 14.5 0.00 0.00 0.00 60 1004.4
20260505013036 23 275 9.7 11.3 0.00 0.00 0.00 60 1004.4
20260505012534 23 237 8.0 17.7 0.00 0.00 0.00 60 1004.1
20260505012030 23 251 6.4 12.9 0.00 0.00 0.00 60 1004.2
20260505011526 23 226 9.7 14.5 0.00 0.00 0.00 59 1004.1
20260505011023 23 247 14.5 20.9 0.00 0.00 0.00 59 1004.1
20260505010518 23 288 4.8 9.7 0.00 0.00 0.00 59 1004.2
20260505010016 24 234 6.4 9.7 0.00 0.00 0.00 59 1003.9
20260505005512 24 250 6.4 12.9 0.00 0.00 0.00 59 1003.8
20260505005010 24 216 8.0 16.1 0.00 0.00 0.00 58 1003.7
20260505004506 24 221 4.8 9.7 0.00 0.00 0.00 59 1003.7
20260505004003 24 237 3.2 9.7 0.00 0.00 0.00 58 1003.7
20260505003500 24 261 3.2 9.7 0.00 0.00 0.00 58 1003.7
20260505002956 25 232 6.4 12.9 0.00 0.00 0.00 57 1003.6
20260505002452 25 257 6.4 12.9 0.00 0.00 0.00 57 1003.3
20260505001951 25 247 9.7 16.1 0.00 0.00 0.00 57 1003.3
20260505001448 25 250 8.0 17.7 0.00 0.00 0.00 57 1003.5
20260505000945 25 231 1.6 17.7 0.00 0.00 0.00 57 1003.3
20260505000443 25 232 8.0 24.1 0.00 0.00 0.00 56 1003.6
20260504235940 25 259 8.0 12.9 0.00 0.00 0.00 57 1003.3
20260504235437 25 322 11.3 17.7 0.00 0.00 0.00 56 1003.3
20260504234933 25 229 8.0 16.1 0.00 0.00 0.00 56 1003.4
20260504234431 25 224 6.4 17.7 0.00 0.00 0.00 56 1003.4
20260504233927 25 283 11.3 20.9 0.00 0.00 0.00 55 1003.4
20260504233423 25 270 16.1 25.7 0.00 0.00 0.00 55 1003.3
20260504232920 25 270 17.7 25.7 0.00 0.00 0.00 55 1003.4
20260504232417 25 230 9.7 24.1 0.00 0.00 0.00 54 1003.5
20260504231914 25 238 9.7 24.1 0.00 0.00 0.00 53 1003.6
20260504231410 25 267 14.5 22.5 0.00 0.00 0.00 53 1003.7
20260504230907 26 259 11.3 20.9 0.00 0.00 0.00 53 1003.5
20260504230404 26 260 12.9 22.5 0.00 0.00 0.00 53 1003.7
20260504225903 26 268 9.7 12.9 0.00 0.00 0.00 52 1003.7
20260504225359 26 260 12.9 27.4 0.00 0.00 0.00 51 1003.5
20260504224856 26 281 8.0 16.1 0.00 0.00 0.00 51 1003.7
20260504224353 26 267 19.3 25.7 0.00 0.00 0.00 51 1003.7
20260504223850 26 285 17.7 30.6 0.00 0.00 0.00 51 1003.8
20260504223345 26 256 17.7 37.0 0.00 0.00 0.00 51 1003.6
20260504222842 26 241 12.9 16.1 0.00 0.00 0.00 51 1003.6
20260504222339 26 272 11.3 20.9 0.00 0.00 0.00 50 1003.8
20260504221837 26 273 6.4 16.1 0.00 0.00 0.00 50 1003.8
20260504221334 26 322 8.0 17.7 0.00 0.00 0.00 52 1003.7
20260504220831 26 263 6.4 14.5 0.00 0.00 0.00 51 1003.7
20260504220327 26 184 6.4 20.9 0.00 0.00 0.00 51 1003.7
20260504215825 26 214 12.9 29.0 0.00 0.00 0.00 51 1003.7
20260504215321 26 286 17.7 22.5 0.00 0.00 0.00 50 1003.8
20260504214817 26 262 11.3 29.0 0.00 0.00 0.00 49 1004.0
20260504214314 26 218 11.3 22.5 0.00 0.00 0.00 50 1003.8
20260504213811 26 265 12.9 33.8 0.00 0.00 0.00 50 1004.0
20260504213307 26 239 19.3 25.7 0.00 0.00 0.00 51 1004.1
20260504212804 26 302 16.1 33.8 0.00 0.00 0.00 50 1004.0
20260504212300 27 244 12.9 27.4 0.00 0.00 0.00 49 1004.1
20260504211758 26 287 16.1 25.7 0.00 0.00 0.00 49 1004.0
20260504211254 26 297 30.6 35.4 0.00 0.00 0.00 48 1004.0
20260504210752 27 271 30.6 41.8 0.00 0.00 0.00 48 1004.1
20260504210249 27 253 17.7 29.0 0.00 0.00 0.00 49 1004.2
20260504205746 26 220 12.9 16.1 0.00 0.00 0.00 49 1004.0
20260504205243 27 237 9.7 17.7 0.00 0.00 0.00 49 1004.4
20260504204741 26 203 16.1 25.7 0.00 0.00 0.00 50 1004.0
20260504204239 26 253 20.9 29.0 0.00 0.00 0.00 49 1004.3
20260504203738 26 259 20.9 33.8 0.00 0.00 0.00 49 1004.4
20260504203235 26 248 17.7 30.6 0.00 0.00 0.00 49 1004.4
20260504202735 26 250 8.0 29.0 0.00 0.00 0.00 49 1004.5
20260504202233 26 243 11.3 30.6 0.00 0.00 0.00 49 1004.5
20260504201730 26 325 11.3 17.7 0.00 0.00 0.00 50 1004.7
20260504201227 26 305 9.7 24.1 0.00 0.00 0.00 50 1004.7
20260504200725 26 247 6.4 22.5 0.00 0.00 0.00 49 1004.4
20260504200220 26 240 16.1 24.1 0.00 0.00 0.00 51 1004.7
20260504195717 26 242 17.7 30.6 0.00 0.00 0.00 50 1004.9
20260504195213 26 264 19.3 35.4 0.00 0.00 0.00 49 1005.0
20260504194710 26 290 27.4 30.6 0.00 0.00 0.00 50 1005.0
20260504194206 26 247 11.3 25.7 0.00 0.00 0.00 49 1004.9
20260504193703 26 242 12.9 25.7 0.00 0.00 0.00 50 1004.9
20260504193200 26 266 8.0 25.7 0.00 0.00 0.00 51 1004.8
20260504192659 26 329 19.3 35.4 0.00 0.00 0.00 51 1005.0
20260504192156 26 321 16.1 38.6 0.00 0.00 0.00 49 1004.9
20260504191655 26 256 16.1 27.4 0.00 0.00 0.00 50 1005.2
20260504191150 26 270 16.1 29.0 0.00 0.00 0.00 51 1005.0
20260504190646 26 319 9.7 25.7 0.00 0.00 0.00 51 1005.0
20260504190143 25 265 20.9 33.8 0.00 0.00 0.00 51 1005.1
20260504185639 26 294 17.7 27.4 0.00 0.00 0.00 51 1005.2
20260504185136 25 246 17.7 25.7 0.00 0.00 0.00 51 1005.2
20260504184632 25 258 17.7 37.0 0.00 0.00 0.00 51 1005.2
20260504184127 25 210 19.3 25.7 0.00 0.00 0.00 51 1005.1
20260504183625 25 249 24.1 30.6 0.00 0.00 0.00 50 1005.3
20260504183122 25 255 14.5 24.1 0.00 0.00 0.00 50 1005.0
20260504182620 25 262 17.7 29.0 0.00 0.00 0.00 52 1004.9
20260504182117 25 322 17.7 33.8 0.00 0.00 0.00 52 1005.2
20260504181614 25 230 6.4 20.9 0.00 0.00 0.00 53 1005.2
20260504181112 25 295 8.0 16.1 0.00 0.00 0.00 53 1005.3
20260504180611 24 246 4.8 16.1 0.00 0.00 0.00 54 1005.3
20260504180109 23 236 14.5 22.5 0.00 0.00 0.00 54 1005.2
20260504175606 23 218 9.7 17.7 0.00 0.00 0.00 56 1005.1
20260504175103 23 239 11.3 14.5 0.00 0.00 0.00 56 1005.1
20260504174601 23 221 9.7 12.9 0.00 0.00 0.00 56 1005.2
20260504174057 22 221 12.9 20.9 0.00 0.00 0.00 56 1005.3
20260504173554 22 223 11.3 16.1 0.00 0.00 0.00 56 1005.7
20260504173052 23 325 6.4 20.9 0.00 0.00 0.00 56 1005.6
20260504172547 23 287 6.4 20.9 0.00 0.00 0.00 55 1005.7
20260504172044 23 281 9.7 22.5 0.00 0.00 0.00 54 1005.5
20260504171541 23 233 12.9 24.1 0.00 0.00 0.00 54 1005.6
20260504171038 23 299 9.7 27.4 0.00 0.00 0.00 54 1005.7
20260504170534 23 231 17.7 27.4 0.00 0.00 0.00 54 1005.7
20260504150912 22 265 19.3 35.4 0.00 0.00 0.00 53 1005.8
20260504150409 21 280 14.5 27.4 0.00 0.00 0.00 54 1005.8
20260504140835 21 287 27.4 33.8 0.00 0.00 0.00 55 1006.5
20260504140331 20 261 16.1 30.6 0.00 0.00 0.00 55 1006.7
20260504130800 18 228 8.0 27.4 0.00 0.00 0.00 59 1006.7
20260504130256 18 228 17.7 25.7 0.00 0.00 0.00 59 1006.7
20260504120220 17 258 8.0 16.1 0.00 0.00 0.00 61 1007.0
20260504110647 17 232 14.5 17.7 0.00 0.00 0.00 60 1007.2
20260504110143 17 244 12.9 17.7 0.00 0.00 0.00 60 1007.3
20260504100609 18 264 4.8 22.5 0.00 0.00 0.00 59 1007.6
20260504100108 17 260 9.7 14.5 0.00 0.00 0.00 59 1007.8
20260504082003 18 227 6.4 14.5 0.00 0.00 0.00 57 1008.0
20260504081500 18 287 17.7 25.7 0.00 0.00 0.00 56 1008.1
20260504080955 18 230 12.9 24.1 0.00 0.00 0.00 56 1008.1
20260504080452 18 204 11.3 25.7 0.00 0.00 0.00 57 1008.1